Regional Weather Roundup
Issued by NWS Wakefield, VA

Home | Current Version | Previous Version | Text Only | Print | Product List | Glossary On
Versions: 1 2 3 4 5 6 7 8 9 10 11 12 13 14 15 16 17 18 19 20 21 22 23 24 25 26 27 28
000
ASUS41 KAKQ 200815
RWRAKQ

REGIONAL WEATHER ROUNDUP
NATIONAL WEATHER SERVICE WAKEFIELD VA
300 AM EST FRI JAN 20 2017

Note: "fair" indicates few or no clouds below 12,000 feet with no
significant weather and/or obstructions to visibility. * = Denotes
station may not report precipitation (e.g., rain,snow,etc.),
thunder or fog.

VAZ042-051-052>054-056-200900-
NORTHERN VIRGINIA

CITY           SKY/WX    TMP DP  RH WIND       PRES   REMARKS
WASH NATIONAL  CLOUDY    41  39  93 CALM      30.02S
DULLES         MOCLDY    34  31  88 CALM      30.00R
FORT BELVOIR   CLOUDY    34  32  94 CALM      30.00F
QUANTICO       CLOUDY    36  36 100 NW3       30.02F
FREDERICKSBRG* PTCLDY    37  37 100 CALM      29.99F
STAFFORD*      CLOUDY    34  34 100 CALM      30.03F
WARRENTON      CLOUDY    32  29  90 CALM      29.98F FOG
CULPEPER*      CLOUDY    34  34 100 CALM      29.99F
MANASSAS*      NOT AVBL
LEESBURG*      PTCLDY    36  36 100 MISG      30.00F
WINCHESTER     CLOUDY    34  32  93 NE5       29.94F
FRONT ROYAL*   FAIR      34  34 100 CALM      29.93F
LURAY*         FAIR      36  36 100 CALM      29.93F
$$

VAZ048-049-060>072-079>083-200900-
CENTRAL AND SOUTH CENTRAL VIRGINIA

CITY           SKY/WX    TMP DP  RH WIND       PRES   REMARKS
RICHMOND       CLOUDY    41  38  89 SE6       29.99F
CHESTERFIELD*  FAIR      43  25  49 CALM      30.00F
PETERSBURG*    CLOUDY    39  37  93 CALM      29.99F
HANOVER        MOCLDY    41  36  82 SE3       30.00F
TAPPAHANNOCK*  MOCLDY    40  38  93 SE3       30.01S
QUINTON*       FAIR      40  39  97 E3        29.99F
CHARLOTTSVILLE CLOUDY    42  38  85 N3        29.95F
GORDONSVILLE*  FAIR      37  37  99 CALM      29.97S
ORANGE*          N/A     37  37 100 CALM      29.99F
LOUISA*        CLOUDY    43  41  93 CALM      29.96F
BUMPASS*       FAIR      38  38  99 E3        29.97F
FARMVILLE*     CLOUDY    43  40  89 N3        29.95F
CREWE*         FAIR      38  38 100 CALM      29.97S
FORT PICKETT*  FAIR      42  38  87 SE5       29.98R
CHASE CITY*    PTSUNNY   44  43  95 SE3       29.95F
CLARKSVILLE*     N/A     43  41  93 CALM      29.95F
SOUTH HILL*    CLOUDY    41  40  96 CALM      30.02F
LAWRENCEVILLE* FAIR      42  39  91 SE3       29.98S
EMPORIA*       CLOUDY    39  37  93 CALM      30.01S
$$

VAZ088>098-200900-
SOUTHEAST VIRGINIA

CITY           SKY/WX    TMP DP  RH WIND       PRES   REMARKS
NORFOLK        CLOUDY    43  40  89 SE3       30.00F
VIRGINIA BEACH CLOUDY    38  35  89 CALM      30.00F
NORFOLK NAVAL  CLOUDY    43  39  86 SW3       30.02S
WEST POINT*    CLOUDY    39  37  92 CALM      30.02F
SALUDA*        FAIR      40  38  93 S3        30.00F
NEWPORT NEWS   CLOUDY    40  38  93 CALM      30.01S
LANGLEY AFB    CLOUDY    39  39  99 CALM      30.00F
FORT EUSTIS    CLOUDY    42  38  86 SE5       29.98F
WILLIAMSBURG*  CLOUDY    45  41  87 CALM      30.01F
HR EXEC AP*    FAIR      37  36  93 CALM      30.01S
FRANKLIN*      CLOUDY    42  39  89 SE5       30.01F
US460-WAKEFLD  CLOUDY    42  40  92 CALM      30.00F
$$

VAZ020-022-025-037-045-200900-
WEST CENTRAL AND SOUTHWEST VIRGINIA

CITY           SKY/WX    TMP DP  RH WIND       PRES   REMARKS
STAUNTON*      CLOUDY    38  37  94 CALM      29.95S
WAYNESBORO*    PTSUNNY   45  37  75 SE3       29.92F
HOT SPRINGS VA CLOUDY    43  32  65 S10       29.87F
LYNCHBURG      CLOUDY    44  40  85 CALM      29.95F
DANVILLE       CLOUDY    41  40  96 CALM      29.94F
SOUTH BOSTON*  FAIR      42  41  96 CALM      29.95S
MARTINSVILLE   CLOUDY    40  37  89 CALM      29.95R
ROANOKE        CLOUDY    47  39  74 S5        29.93F
BLACKSBURG     CLOUDY    45  39  81 CALM      29.93F
DUBLIN*        CLOUDY    46  39  77 CALM      29.91S
MARION*        CLOUDY    50  39  67 CALM      29.88F
HILLSVILLE*    CLOUDY    48  38  67 S8        29.88F
RICHLANDS*     PTSUNNY  N/A N/A N/A SE8       29.80F
WISE*          DRIZZLE   54  43  66 S10G16    29.77F
ABINGDON*      CLOUDY    55  43  64 CALM      29.80F
$$

MDZ021>025-VAZ099-100-200900-
SOUTHERN MARYLAND AND THE DELMARVA PENINSULA

CITY           SKY/WX    TMP DP  RH WIND       PRES   REMARKS
PATUXENT RIVER CLOUDY    36  34  92 E3        30.01F
BAY BRIDGE APT PTCLDY    36  34  93 E3        30.01F
LEONARDTOWN    PTCLDY    36  34  93 E3        30.01F
DOVER          PTCLDY    33  33 100 CALM      30.02S
GEORGETOWN     CLOUDY    33  31  92 CALM      30.03R
EASTON         MOCLDY    35  32  90 CALM      30.06S
CAMBRIDGE      CLOUDY    32  32 100 CALM      30.02S
SALISBURY      CLOUDY    33  32  96 CALM      30.03R
OCEAN CITY     MOCLDY    33  33 100 CALM      30.03R FOG
WALLOPS ISLAND MOCLDY    34  33  96 CALM      30.04R
ACCOMACK*      CLOUDY    34  33  96 CALM      30.03S
$$

NCZ012>017-030>032-200900-
NORTH CENTRAL AND EASTERN NORTH CAROLINA

CITY           SKY/WX    TMP DP  RH WIND       PRES   REMARKS
ROANOKE RAPIDS FAIR      41  41 100 CALM      29.99S
RALEIGH        CLOUDY    49  42  77 S5        29.97R
ELIZABETH CITY CLOUDY    42  41  96 E3        30.01F
AHOSKIE*         N/A     42  40  95 SE3       30.01S
EDENTON*       CLOUDY    46  42  88 CALM      30.02F
CURRITUCK*     CLOUDY    41  41 100 CALM      30.03R FOG
KILL DEVIL HLS NOT AVBL
MANTEO         CLOUDY    44  44 100 CALM      30.02F
CAPE HATTERAS  CLOUDY    48  44  86 NE5       30.02R
TARBORO*       NOT AVBL
GOLDSBORO      CLOUDY    44  44 100 CALM      29.96F
WASHINGTON     CLOUDY    42  41  97 CALM        N/A  FOG
GREENVILLE     CLOUDY    43  43 100 CALM      30.02R
NEW BERN       PTCLDY    44  42  93 CALM      30.01S
WILMINGTON     CLOUDY    47  46  97 CALM      29.98F
$$

VAZ048-200900-
ELSEWHERE

CITY           SKY/WX    TMP DP  RH WIND       PRES   REMARKS
HARRISBURG PA  CLOUDY    32  31  96 CALM      30.01R
BALTIMORE      MOCLDY    34  32  92 CALM      30.01S
ANNAPOLIS      CLOUDY    37  34  89 CALM      30.01S
ANDREWS AFB    MOCLDY    38  35  88 CALM      29.99F
PHILADELPHIA   CLOUDY    33  31  92 CALM      30.04F
HENDERSON NC   CLOUDY    44  38  79 S5        29.95F
GREENSBORO     CLOUDY    49  40  71 S6        29.93S
ROCKY MOUNT    CLOUDY    44  43  96 SE3       29.98F
$$

VAZ100-200900-
MARINE

STATION/POSITION TIME  TEMP    WIND        PRES    WAVE   SWELL
                       AIR SEA DIR/SP/G            HT/PER HT/PER
                 (UTC) (F)     (DEG/KT/KT) (MB)    (FT/S) (FT/S)
CAPE MAY NJ      0748   36 41   CALM  /  1 1016.6R
LEWES DE         0748           CALM  /  1 1016.7R
OCEAN-CITY-INLET 0748           30/  2/  2 1017.2R
WACHAPREAGUE VA  0742   39 47  280/  2/  3 1016.8F
THOMAS POINT MD  0800   39 40  110/  6/  7   N/A
GOOSES REEF MD   0800   40     120/  4/  6 1017.0    0
COVE POINT MD    0742   40     160/  5/  6 1017.0F
SOLOMONS ISLAND  0748           90/  3/  4   N/A
BISHOPS HEAD MD  0742   41 45  200/  3/  3 1017.0R
PINEY POINT MD   0748          110/  6/  6   N/A
POTOMAC MD       0800   41 41  100/  6/  6 1015.3    0
CAMBRIDGE MD     0742   36 40   CALM  /  1 1016.0R
LEWISETTA VA     0742   42 44  210/  4/  5 1015.8F
RAPPAHANNOCK LGT 0748          140/  6/  6 1016.9F
STINGRAY PT      0750   41     170/  4/  4 1016.5F
YORK RVR RNG VA  0742   43     160/  7/  7 1015.6F
YORKTOWN VA      0742   43 42  160/  3/  4 1016.0S
JAMESTOWN VA     0750   43     110/  6/  8   N/A
DOMINION TERM VA 0742   44     170/  4/  5 1016.4R
KIPTOPEKE VA     0748          120/  4/  5   N/A
CHES BAY BRIDGE  0742   43 45  140/  4/  5 1016.2F
CAPE HENRY VA    0742   43     140/  5/  5   N/A
WILLOUBY STN VA  0742   43     160/  5/  6 1017.1S
S CRANEY ISL VA  0742   44     190/  3/  4 1016.1S
CAPE HENRY BUOY  0742      48                N/A     3/11   2/11
OFFSHORE WE BUOY 0751      49                N/A     4/12   2/12
64NM E OF VA BCH 0750   51 56   50/  4/  6 1016.2S   5/11   5/11
DUCK PIER NC     0742   45 45  100/  3/  4 1015.9F
44100 DUCK FRF   0735      47                N/A     5/12   3/12
44056 DUCK FRF   0730      45                N/A     4/12   2/12
OREGON INLET NC  0742   46 49   40/  1/  3 1016.4S
HATTERAS NC      0748           70/  4/  5 1015.9R
DIAMOND SHLS NC  0750   57 76   50/  6/  8 1016.1F   5/11   5/11
CAPE LOOKOUT NC  0700   54      20/  4/  5 1015.2F
$$




USA.gov is the U.S. government's official web portal to all federal, state and local government web resources and services.